Location: Ebersheim
(48.3033°N, 7.4991°E)
Time: 08:02:13
(UTC+00:00)

Meteor 1-18 Rocket - Pass Details

Date: 27 February 2020
Orbit: 836 x 909 km, 81.2° (Epoch: 30 March)

Event Time Altitude Azimuth Distance (km) Brightness Sun altitude
Rises 18:30:03 0° 347° (NNW) 3,544 7.6 -14.1°
Reaches altitude 10° 18:32:32 10° 348° (NNW) 2,593 6.9 -14.5°
Maximum altitude 18:38:29 87° 260° (W) 901 4.3 -15.5°
Drops below altitude 10° 18:44:16 10° 172° (S) 2,532 6.5 -16.4°
Sets 18:46:40 0° 172° (S) 3,455 7.2 -16.8°
